FW0546 Weather Reports


time (UTC)temp
C
wind
direction
speed
KPH
gust
KPH
rain 1hr
cm
rain 24hr
cm
rain mn
cm
humidity
%
barometer
mb
20190419130208 14 48 0.0 17.7 0.00 0.03 0.03 77 1022.5
20190419125709 14 85 0.0 6.4 0.00 0.03 0.03 77 1022.5
20190419125207 14 15 0.0 6.4 0.00 0.03 0.03 77 1022.5
20190419124714 14 78 0.0 1.6 0.00 0.03 0.03 77 1022.5
20190419124209 14 72 0.0 1.6 0.00 0.03 0.03 77 1022.5
20190419123708 14 63 0.0 1.6 0.00 0.03 0.03 77 1022.5
20190419123214 14 103 0.0 4.8 0.00 0.03 0.03 76 1022.5
20190419122707 14 86 0.0 11.3 0.00 0.03 0.03 76 1022.6
20190419122207 14 56 0.0 11.3 0.00 0.03 0.03 76 1022.6
20190419121713 14 60 0.0 8.0 0.00 0.03 0.03 76 1022.5
20190419121210 14 87 0.0 8.0 0.00 0.03 0.03 76 1022.5
20190419120707 14 33 0.0 3.2 0.00 0.03 0.03 75 1022.4
20190419120207 14 87 0.0 3.2 0.00 0.03 0.03 75 1022.5
20190419115708 14 55 0.0 1.6 0.00 0.03 0.03 75 1022.5
20190419115207 14 69 0.0 6.4 0.00 0.03 0.03 74 1022.6
20190419114707 14 70 0.0 6.4 0.00 0.03 0.03 73 1022.5
20190419114207 14 94 0.0 6.4 0.00 0.03 0.03 73 1022.5
20190419113708 14 96 0.0 0.0 0.00 0.03 0.03 72 1022.4
20190419113209 14 83 0.0 1.6 0.00 0.03 0.03 72 1022.5
20190419112707 14 100 0.0 1.6 0.00 0.03 0.03 72 1022.5
20190419112207 15 96 0.0 1.6 0.00 0.03 0.03 72 1022.5
20190419111708 15 71 0.0 0.0 0.00 0.03 0.03 72 1022.4
20190419111207 15 91 0.0 0.0 0.00 0.03 0.03 71 1022.4
20190419110711 15 95 0.0 0.0 0.00 0.03 0.03 71 1022.4
20190419110208 15 99 0.0 3.2 0.00 0.03 0.03 71 1022.3
20190419105708 15 98 0.0 3.2 0.00 0.03 0.03 71 1022.4
20190419105209 15 67 0.0 3.2 0.00 0.03 0.03 71 1022.3
20190419104708 15 84 0.0 3.2 0.00 0.03 0.03 72 1022.2
20190419104208 15 85 0.0 8.0 0.00 0.03 0.03 72 1022.2
20190419103708 15 71 0.0 8.0 0.00 0.03 0.03 72 1022.3
20190419103207 15 71 0.0 0.0 0.00 0.03 0.03 73 1022.3
20190419102708 15 81 0.0 0.0 0.00 0.03 0.03 73 1022.3
20190419102208 15 93 0.0 3.2 0.00 0.03 0.03 72 1022.3
20190419101708 15 73 0.0 3.2 0.00 0.03 0.03 72 1022.3
20190419101208 15 70 0.0 3.2 0.00 0.03 0.03 72 1022.3
20190419100707 15 85 0.0 1.6 0.00 0.03 0.03 71 1022.3
20190419100208 16 106 0.0 1.6 0.00 0.03 0.03 70 1022.4
20190419095710 16 112 0.0 1.6 0.00 0.03 0.03 70 1022.4
20190419095208 16 60 0.0 0.0 0.00 0.03 0.03 70 1022.3
20190419094708 16 67 0.0 0.0 0.00 0.03 0.03 70 1022.3
20190419094207 16 96 0.0 0.0 0.00 0.03 0.03 69 1022.2
20190419093709 16 72 0.0 1.6 0.00 0.03 0.03 69 1022.3
20190419093208 16 72 0.0 1.6 0.00 0.03 0.03 68 1022.1
20190419092709 16 77 0.0 1.6 0.00 0.03 0.03 68 1022.1
20190419092209 16 97 0.0 0.0 0.00 0.03 0.03 67 1022.1
20190419091208 17 98 0.0 0.0 0.00 0.03 0.03 65 1022.0
20190419090708 17 101 0.0 0.0 0.00 0.03 0.03 64 1022.0
20190419090207 17 92 0.0 0.0 0.00 0.03 0.03 63 1022.0
20190419085708 17 117 0.0 0.0 0.00 0.03 0.03 63 1022.0
20190419085207 17 98 0.0 0.0 0.00 0.03 0.03 62 1021.9
20190419084707 17 118 0.0 0.0 0.00 0.03 0.03 62 1022.0
20190419084209 17 90 0.0 0.0 0.00 0.03 0.03 60 1021.9
20190419083711 17 106 0.0 0.0 0.00 0.03 0.03 60 1021.8
20190419083210 17 111 0.0 0.0 0.00 0.03 0.03 59 1021.8
20190419082710 18 117 0.0 0.0 0.00 0.03 0.03 58 1021.9
20190419082208 18 112 0.0 0.0 0.00 0.03 0.03 57 1021.9
20190419081709 18 121 0.0 0.0 0.00 0.03 0.03 57 1021.8
20190419081208 18 112 0.0 0.0 0.00 0.03 0.03 56 1021.8
20190419080707 18 108 0.0 0.0 0.00 0.03 0.03 55 1021.8
20190419080207 18 94 0.0 0.0 0.00 0.03 0.03 55 1021.9
20190419075709 18 112 0.0 0.0 0.00 0.03 0.03 54 1021.9
20190419075207 18 114 0.0 0.0 0.00 0.03 0.03 54 1021.9
20190419074708 18 126 0.0 0.0 0.00 0.03 0.03 53 1021.9
20190419074207 19 109 0.0 0.0 0.00 0.03 0.03 53 1021.7
20190419073708 19 110 0.0 0.0 0.00 0.03 0.03 52 1021.8
20190419073208 19 125 0.0 0.0 0.00 0.03 0.03 51 1021.8
20190419072708 19 127 0.0 0.0 0.00 0.03 0.03 51 1021.7
20190419072211 19 85 0.0 0.0 0.00 0.03 0.03 50 1021.7
20190419071708 20 89 0.0 0.0 0.00 0.03 0.03 49 1021.5
20190419071207 20 81 0.0 0.0 0.00 0.03 0.03 49 1021.6
20190419070707 20 87 0.0 0.0 0.00 0.03 0.03 48 1021.6
20190419070208 20 83 0.0 3.2 0.00 0.03 0.03 48 1021.6
20190419065707 20 79 0.0 3.2 0.00 0.03 0.03 48 1021.6
20190419065211 20 97 0.0 0.0 0.00 0.03 0.03 47 1021.6
20190419064707 20 61 0.0 0.0 0.00 0.03 0.03 48 1021.7
20190419064208 20 79 0.0 0.0 0.00 0.03 0.03 46 1021.7
20190419063708 20 60 0.0 0.0 0.00 0.03 0.03 46 1021.8
20190419063208 20 73 0.0 0.0 0.00 0.03 0.03 45 1021.8
20190419062707 20 92 0.0 0.0 0.00 0.03 0.03 47 1021.8
20190419062209 20 62 0.0 1.6 0.00 0.03 0.03 47 1021.9
20190419061707 20 17 0.0 4.8 0.00 0.03 0.03 46 1021.8
20190419061208 20 69 0.0 4.8 0.00 0.03 0.03 45 1021.8
20190419060707 20 58 0.0 1.6 0.00 0.03 0.03 45 1021.9
20190419060208 21 29 0.0 0.0 0.00 0.03 0.03 46 1021.8
20190419055709 21 85 0.0 0.0 0.00 0.03 0.03 45 1021.9
20190419055208 21 54 0.0 1.6 0.00 0.03 0.03 44 1021.9
20190419054709 21 31 0.0 1.6 0.00 0.03 0.03 45 1022.0
20190419054207 21 57 0.0 1.6 0.00 0.03 0.03 47 1022.0
20190419053708 21 46 0.0 1.6 0.00 0.03 0.03 44 1022.1
20190419053208 21 29 0.0 1.6 0.00 0.03 0.03 44 1022.2
20190419052707 21 53 0.0 0.0 0.00 0.03 0.03 48 1022.2
20190419052208 21 57 0.0 0.0 0.00 0.03 0.03 47 1022.1
20190419051707 21 57 0.0 0.0 0.00 0.03 0.03 47 1021.9
20190419051208 21 35 0.0 3.2 0.00 0.03 0.03 49 1022.0
20190419050708 21 85 0.0 3.2 0.00 0.03 0.03 50 1022.0
20190419050208 21 73 0.0 3.2 0.00 0.03 0.03 50 1022.0
20190419045709 21 67 0.0 1.6 0.00 0.03 0.03 48 1021.9
20190419045208 20 66 0.0 1.6 0.00 0.03 0.03 47 1021.9
20190419044708 20 44 0.0 16.1 0.00 0.03 0.03 49 1022.0
20190419044207 20 60 0.0 16.1 0.00 0.03 0.03 49 1022.1
20190419043707 20 12 0.0 16.1 0.00 0.03 0.03 49 1022.2
20190419043209 20 95 0.0 3.2 0.00 0.03 0.03 50 1022.2
20190419042707 20 22 0.0 3.2 0.00 0.03 0.03 51 1022.3
20190419042207 20 10 0.0 1.6 0.00 0.03 0.03 50 1022.3
20190419041707 20 25 0.0 6.4 0.00 0.03 0.03 51 1022.2
20190419041208 20 90 0.0 8.0 0.00 0.03 0.03 51 1022.2
20190419040708 20 60 0.0 8.0 0.00 0.03 0.03 51 1022.3
20190419040207 20 56 0.0 8.0 0.00 0.03 0.03 53 1022.2
20190419035707 20 33 0.0 1.6 0.00 0.03 0.03 53 1022.3
20190419035208 20 23 0.0 12.9 0.00 0.03 0.03 52 1022.3
20190419034708 20 54 0.0 12.9 0.00 0.03 0.03 53 1022.3
20190419034209 20 71 0.0 6.4 0.00 0.03 0.03 53 1022.5
20190419033707 20 98 0.0 6.4 0.00 0.03 0.03 54 1022.7
20190419033207 20 71 0.0 14.5 0.00 0.03 0.03 53 1022.8
20190419032709 20 54 0.0 14.5 0.00 0.03 0.03 53 1022.8
20190419032207 20 57 0.0 6.4 0.00 0.03 0.03 54 1022.9
20190419031707 20 85 0.0 6.4 0.00 0.03 0.03 54 1023.1
20190419031208 20 74 0.0 3.2 0.00 0.03 0.03 53 1023.1
20190419030707 19 87 0.0 1.6 0.00 0.03 0.03 57 1023.1
20190419030208 19 107 0.0 1.6 0.00 0.03 0.03 55 1023.1
20190419025708 19 92 0.0 12.9 0.00 0.03 0.03 59 1023.2
20190419025208 19 72 0.0 12.9 0.00 0.03 0.03 59 1023.5
20190419024707 19 94 0.0 12.9 0.00 0.03 0.03 62 1023.7
20190419024207 19 69 0.0 11.3 0.00 0.03 0.03 60 1023.9
20190419023707 19 88 0.0 3.2 0.00 0.03 0.03 61 1023.9
20190419023207 18 101 0.0 3.2 0.00 0.03 0.03 61 1024.0
20190419022709 18 105 0.0 3.2 0.00 0.03 0.03 62 1024.1
20190419022208 18 79 0.0 3.2 0.00 0.03 0.03 63 1024.1
20190419021708 18 109 0.0 0.0 0.00 0.03 0.03 62 1024.3
20190419021209 18 75 0.0 3.2 0.00 0.03 0.03 62 1024.4
20190419020708 18 20 0.0 3.2 0.00 0.03 0.03 63 1024.5
20190419020208 18 40 0.0 3.2 0.00 0.03 0.03 66 1024.5
20190419015708 18 83 0.0 1.6 0.00 0.03 0.03 66 1024.6
20190419015208 17 85 0.0 6.4 0.00 0.03 0.03 66 1024.7
20190419014707 17 55 0.0 6.4 0.00 0.03 0.03 66 1024.8
20190419014208 17 67 0.0 0.0 0.00 0.03 0.03 67 1024.9
20190419013708 17 50 0.0 0.0 0.00 0.03 0.03 68 1024.9
20190419013207 17 79 0.0 1.6 0.00 0.03 0.03 69 1025.0
20190419012708 17 67 0.0 6.4 0.00 0.03 0.03 68 1025.0
20190419012208 17 87 0.0 6.4 0.00 0.03 0.03 70 1025.2
20190419011708 16 67 0.0 6.4 0.00 0.03 0.03 69 1025.1
20190419011208 16 66 0.0 4.8 0.00 0.03 0.03 70 1025.1
20190419010708 16 52 0.0 3.2 0.00 0.03 0.03 72 1025.2
20190419010208 16 93 0.0 3.2 0.00 0.03 0.03 74 1025.2
20190419005708 16 69 0.0 3.2 0.00 0.03 0.03 73 1025.2
20190419005207 16 65 0.0 3.2 0.00 0.03 0.03 73 1025.4
20190419004707 16 98 0.0 3.2 0.00 0.03 0.03 75 1025.5
20190419004227 15 55 0.0 3.2 0.00 0.03 0.03 77 1025.4
20190419003708 15 92 0.0 0.0 0.00 0.03 0.03 76 1025.5
20190419003208 15 48 0.0 1.6 0.00 0.03 0.03 77 1025.4
20190419002708 15 54 0.0 1.6 0.00 0.03 0.03 75 1025.5
20190419002209 15 60 0.0 3.2 0.00 0.03 0.03 76 1025.6
20190419001707 15 70 0.0 3.2 0.00 0.03 0.03 76 1025.7
20190419001207 15 81 0.0 3.2 0.00 0.03 0.03 77 1025.8
20190419000708 15 67 0.0 0.0 0.00 0.03 0.03 77 1025.8
20190419000208 15 85 0.0 0.0 0.00 0.03 0.03 79 1026.0
20190418235708 14 98 0.0 0.0 0.00 0.03 0.03 80 1026.1
20190418235209 14 105 0.0 0.0 0.00 0.03 0.03 82 1026.1
20190418234709 13 63 0.0 0.0 0.00 0.03 0.03 83 1026.1
20190418234209 13 52 0.0 0.0 0.00 0.03 0.03 84 1026.1
20190418233708 13 35 0.0 0.0 0.00 0.03 0.03 85 1026.1
20190418233208 13 50 0.0 0.0 0.00 0.03 0.03 86 1026.0
20190418232708 12 59 0.0 0.0 0.00 0.03 0.03 88 1026.1
20190418232208 12 69 0.0 0.0 0.00 0.03 0.03 89 1026.1
20190418231708 12 69 0.0 0.0 0.00 0.03 0.03 90 1026.1
20190418231210 11 54 0.0 0.0 0.00 0.03 0.03 91 1026.1
20190418230707 11 54 0.0 0.0 0.00 0.03 0.03 92 1026.1
20190418230208 11 54 0.0 0.0 0.00 0.03 0.03 92 1026.1
20190418225708 10 54 0.0 0.0 0.00 0.03 0.03 93 1026.2
20190418225208 9 54 0.0 0.0 0.00 0.03 0.03 94 1026.3
20190418224708 8 54 0.0 0.0 0.00 0.03 0.03 94 1026.4
20190418224209 8 54 0.0 0.0 0.00 0.03 0.03 94 1026.5
20190418223708 8 54 0.0 0.0 0.00 0.03 0.03 93 1026.5
20190418223207 7 54 0.0 0.0 0.00 0.03 0.03 93 1026.4
20190418222708 7 65 0.0 0.0 0.00 0.03 0.03 93 1026.4
20190418222207 7 333 0.0 0.0 0.00 0.03 0.03 93 1026.5
20190418221707 7 298 0.0 0.0 0.00 0.03 0.03 93 1026.5
20190418221207 7 298 0.0 0.0 0.00 0.03 0.03 93 1026.4
20190418220707 7 298 0.0 0.0 0.00 0.03 0.03 93 1026.4
20190418215708 7 298 0.0 0.0 0.00 0.03 0.03 93 1026.4
20190418215208 7 173 0.0 0.0 0.00 0.03 0.03 93 1026.2
20190418214707 7 173 0.0 0.0 0.00 0.03 0.03 93 1026.1
20190418214207 7 173 0.0 0.0 0.00 0.03 0.03 93 1026.2
20190418213709 7 173 0.0 0.0 0.00 0.03 0.03 93 1026.0
20190418213208 7 173 0.0 0.0 0.00 0.03 0.03 94 1025.9
20190418212708 7 173 0.0 0.0 0.00 0.03 0.03 94 1025.9
20190418212207 7 173 0.0 0.0 0.00 0.03 0.03 94 1025.8
20190418211707 7 173 0.0 0.0 0.00 0.03 0.03 94 1025.8
20190418211207 7 173 0.0 0.0 0.00 0.03 0.03 93 1025.7
20190418210708 7 173 0.0 0.0 0.00 0.03 0.03 93 1025.8
20190418210207 6 173 0.0 0.0 0.00 0.03 0.03 93 1025.8
20190418205707 7 173 0.0 0.0 0.00 0.03 0.03 93 1025.7
20190418205207 7 173 0.0 0.0 0.00 0.03 0.03 93 1025.7
20190418204707 7 173 0.0 0.0 0.00 0.03 0.03 94 1025.7
20190418204222 7 173 0.0 0.0 0.00 0.03 0.03 94 1025.8
20190418203708 6 173 0.0 0.0 0.00 0.03 0.03 93 1025.8
20190418203208 6 173 0.0 0.0 0.00 0.03 0.03 92 1025.7
20190418202711 6 173 0.0 0.0 0.00 0.03 0.03 92 1025.7
20190418202207 6 173 0.0 0.0 0.00 0.03 0.03 93 1025.6
20190418201708 6 173 0.0 0.0 0.00 0.03 0.03 93 1025.8
20190418201208 6 173 0.0 0.0 0.00 0.03 0.03 93 1025.8
20190418200707 6 173 0.0 0.0 0.00 0.03 0.03 92 1025.7
20190418200208 6 173 0.0 0.0 0.00 0.03 0.03 92 1025.7
20190418195707 6 173 0.0 0.0 0.00 0.03 0.03 92 1025.7
20190418195208 6 173 0.0 0.0 0.00 0.03 0.03 92 1025.5
20190418194708 6 173 0.0 0.0 0.00 0.03 0.03 92 1025.6
20190418194208 6 173 0.0 0.0 0.00 0.03 0.03 92 1025.6
20190418193709 6 173 0.0 0.0 0.00 0.03 0.03 92 1025.4
20190418193207 6 173 0.0 0.0 0.00 0.03 0.03 92 1025.6
20190418192707 6 173 0.0 0.0 0.00 0.03 0.03 91 1025.6
20190418192208 6 173 0.0 0.0 0.00 0.03 0.03 91 1025.7
20190418191707 6 173 0.0 0.0 0.00 0.03 0.03 91 1025.7
20190418191208 7 173 0.0 0.0 0.00 0.03 0.03 91 1025.7
20190418190708 7 173 0.0 0.0 0.00 0.03 0.03 92 1025.8
20190418190208 7 173 0.0 0.0 0.00 0.03 0.03 91 1025.8
20190418185707 7 173 0.0 0.0 0.00 0.03 0.03 91 1025.8
20190418185207 7 173 0.0 0.0 0.00 0.03 0.03 90 1025.8
20190418184707 7 173 0.0 0.0 0.00 0.03 0.03 90 1025.7
20190418184209 8 173 0.0 0.0 0.00 0.03 0.03 92 1025.6
20190418183708 8 196 0.0 0.0 0.00 0.03 0.03 92 1025.5
20190418183208 8 195 0.0 0.0 0.00 0.03 0.03 92 1025.4
20190418182708 8 195 0.0 0.0 0.00 0.03 0.03 92 1025.6
20190418182207 8 195 0.0 0.0 0.00 0.03 0.03 92 1025.5
20190418181708 7 195 0.0 0.0 0.00 0.03 0.03 92 1025.6
20190418181209 7 202 0.0 0.0 0.00 0.03 0.03 92 1025.5
20190418180707 7 207 0.0 0.0 0.00 0.03 0.03 92 1025.6
20190418180207 7 197 0.0 0.0 0.00 0.03 0.03 93 1025.6
20190418175708 7 197 0.0 0.0 0.00 0.03 0.03 93 1025.7
20190418175207 7 207 0.0 0.0 0.00 0.03 0.03 92 1025.7
20190418174707 7 210 0.0 0.0 0.00 0.03 0.03 92 1025.7
20190418174209 7 210 0.0 0.0 0.00 0.03 0.03 93 1025.7
20190418173709 7 204 0.0 0.0 0.00 0.03 0.03 92 1025.7
20190418173208 7 204 0.0 0.0 0.00 0.03 0.03 92 1025.7
20190418172707 7 210 0.0 0.0 0.00 0.03 0.03 92 1025.7
20190418172208 7 210 0.0 0.0 0.00 0.03 0.03 92 1025.8
20190418171708 7 211 0.0 0.0 0.00 0.03 0.03 91 1025.9
20190418171208 7 211 0.0 0.0 0.00 0.03 0.03 92 1025.9
20190418170207 7 209 0.0 0.0 0.00 0.03 0.03 91 1026.0
20190418165727 7 209 0.0 0.0 0.00 0.03 0.03 91 1026.0
20190418165207 7 209 0.0 0.0 0.00 0.03 0.03 91 1026.2
20190418164707 7 209 0.0 0.0 0.00 0.03 0.03 91 1026.2
20190418164207 7 209 0.0 0.0 0.00 0.03 0.03 91 1026.3
20190418163707 7 209 0.0 0.0 0.00 0.03 0.03 91 1026.3
20190418163209 7 209 0.0 0.0 0.00 0.03 0.03 91 1026.3
20190418162708 7 209 0.0 0.0 0.00 0.03 0.03 91 1026.4
20190418162208 7 212 0.0 0.0 0.03 0.03 0.03 91 1026.3
20190418161712 7 212 0.0 0.0 0.03 0.03 0.03 91 1026.4
20190418161208 7 214 0.0 0.0 0.03 0.03 0.03 91 1026.5
20190418160707 7 212 0.0 0.0 0.03 0.03 0.03 90 1026.5
20190418160207 7 212 0.0 0.0 0.03 0.03 0.03 90 1026.6
20190418155707 7 212 0.0 0.0 0.03 0.03 0.03 90 1026.7
20190418155207 7 212 0.0 0.0 0.03 0.03 0.03 91 1026.7
20190418154708 7 212 0.0 0.0 0.03 0.03 0.03 90 1026.7
20190418154208 7 212 0.0 0.0 0.03 0.03 0.03 90 1026.8
20190418153709 7 212 0.0 0.0 0.03 0.03 0.03 90 1026.8
20190418153207 7 209 0.0 0.0 0.03 0.03 0.03 90 1026.8
20190418152708 7 206 0.0 0.0 0.03 0.03 0.03 90 1026.9
20190418152207 7 206 0.0 0.0 0.00 0.00 0.00 90 1027.0
20190418151708 7 206 0.0 0.0 0.00 0.00 0.00 89 1026.9
20190418151208 7 206 0.0 0.0 0.00 0.00 0.00 89 1027.0
20190418150707 7 206 0.0 0.0 0.00 0.00 0.00 89 1027.0
20190418150209 8 206 0.0 0.0 0.00 0.00 0.00 89 1027.0
20190418145707 8 206 0.0 0.0 0.00 0.00 0.00 89 1027.1
20190418145208 8 206 0.0 0.0 0.00 0.00 0.00 88 1027.1
20190418144708 8 206 0.0 0.0 0.00 0.00 0.00 88 1027.2
20190418144207 8 206 0.0 0.0 0.00 0.00 0.00 88 1027.3
20190418143708 8 206 0.0 0.0 0.00 0.00 0.00 87 1027.2
20190418143209 8 206 0.0 0.0 0.00 0.00 0.00 87 1027.3
20190418142708 8 208 0.0 0.0 0.00 0.00 0.00 87 1027.3
20190418142208 8 118 0.0 0.0 0.00 0.00 0.00 87 1027.3
20190418141708 8 113 0.0 0.0 0.00 0.00 0.00 86 1027.4
20190418141208 8 113 0.0 0.0 0.00 0.00 0.00 86 1027.4
20190418140708 8 113 0.0 0.0 0.00 0.00 0.00 86 1027.4
20190418140208 8 113 0.0 0.0 0.00 0.00 0.00 85 1027.3
20190418135707 9 113 0.0 0.0 0.00 0.00 0.00 85 1027.3
20190418135208 9 112 0.0 0.0 0.00 0.00 0.00 85 1027.3
20190418134707 9 112 0.0 0.0 0.00 0.00 0.00 85 1027.5
20190418134208 9 112 0.0 0.0 0.00 0.00 0.00 84 1027.5
20190418133707 9 112 0.0 0.0 0.00 0.00 0.00 84 1027.5
20190418133208 10 112 0.0 0.0 0.00 0.00 0.00 84 1027.5
20190418132707 10 112 0.0 0.0 0.00 0.00 0.00 84 1027.6
20190418132207 10 112 0.0 0.0 0.00 0.00 0.00 84 1027.5
20190418131709 10 112 0.0 0.0 0.00 0.00 0.00 83 1027.6
20190418131207 10 112 0.0 0.0 0.00 0.00 0.00 83 1027.6
20190418130707 10 112 0.0 0.0 0.00 0.00 0.00 82 1027.7